Weather in Looe

United Kingdom     50°21′22″N   4°27′06″W
temp.,
°C
wind,
m/s
gust,
m/s
humid.,
%
clouds,
%
prec.,
mm/h
press.,
hPa
HPBL,
m
6 march, sat
sat600:00+6ene786936 0.0 10341026
03:00+5e786892 0.0 10331065
06:00+5ene676889 0.1 10331033
09:00+4ene887999 0.1 1033620
12:00+5ene776999 0.1 10341025
15:00+6e566661 0.0 1032983
18:00+6ene566631 0.0 1031801
21:00+5ene56700 0.0 1032672
7 march, sun
sun700:00+4nne44750 0.0 1031409
03:00+4nne44760 0.0 1029294
06:00+4nne33760 0.0 1029332
09:00+4nne34690 0.0 1029336
12:00+5ene23590 0.0 1029576
15:00+6ssw32620 0.0 1027378
18:00+6n56724 0.0 1027618
21:00+4n45720 0.0 1027288
8 march, mon
mon800:00+4n34740 0.0 1026236
03:00+4nnw33750 0.0 1026210
06:00+4nnw23730 0.0 1025222
09:00+5wnw237127 0.0 1025279
12:00+7wsw236818 0.0 1025583
15:00+8wnw446676 0.0 1024974
18:00+7wnw457170 0.0 1023659
21:00+6w4570100 0.0 1023528
9 march, tue
tue900:00+7wsw5674100 0.0 1022524
03:00+8wsw6883100 0.1 1021606
06:00+8sw71089100 1.0 1020606
09:00+9sw798995 0.4 1020364
12:00+10sw678765 0.6 1019358
15:00+10sw7108873 0.0 1017498
18:00+9sw9138887 0.0 1016610
21:00+10sw111688100 0.1 1014666
10 march, wed
wed1000:00+10ssw141992100 1.8 1011723
03:00+10sw142195100 4.8 1008723
06:00+11wsw121795100 8.1 1007443
09:00+11wsw81397100 1.5 1007295
12:00+11wsw121896100 4.6 1007481
15:00+11sw132093100 0.9 1006696
18:00+11sw152192100 1.1 1003666
21:00+11sw162492100 0.3 1001769